Fond du Lac, WI

11:35 PM CDT on August 21, 2017 (GMT -0500)
Fond du Lac County

Weather History for KFLD - August, 2013

Change the Weather History Date:

Monday, August 19, 2013

  Actual Average Record
Temperature  
Mean Temperature 68 °F -  
Max Temperature 81 °F 77 °F 95 °F (1955)
Min Temperature 57 °F 59 °F 45 °F (1950)
Cooling Degree Days 4    
Growing Degree Days 18 (Base 50)    
Moisture  
Dew Point 57 °F    
Average Humidity 66    
Maximum Humidity 87    
Minimum Humidity 45    
Precipitation  
Precipitation 0.00 in - - ()
Sea Level Pressure  
Sea Level Pressure 30.05 in    
Wind  
Wind Speed 6 mph (SSW)    
Max Wind Speed 13 mph    
Max Gust Speed 18 mph    
Visibility 10 miles    
Events      
Averages and records for this station are not official NWS values.
T = Trace of Precipitation, MM = Missing Value Source: NWS Daily Summary

Daily Weather History Graph

Daily Weather History Graph

Search for Another Location

Airport or City:

Trip Planner

Search our weather history database for the weather conditions in past years. The results will help you decide how hot, cold, wet, or windy it might be!

Date:

Astronomy

Aug. 19, 2013 Rise Set
Actual Time 6:03 AM CDT 7:51 PM CDT
Civil Twilight 5:32 AM CDT 8:21 PM CDT
Nautical Twilight 4:54 AM CDT 8:58 PM CDT
Astronomical Twilight 4:14 AM CDT 9:39 PM CDT
Moon 6:42 PM CDT (8/19) 4:20 AM CDT (8/19)
Length of Visible Light 14h 49m
Length of Day
13h 48m
Waxing Gibbous, 97% of the Moon is Illuminated
Aug 19
Waxing Gibbous
Aug 20
Full
Aug 28
Last Quarter
Sep 5
New
Sep 12
First Quarter

Hourly Weather History & Observations

Time (CDT) Temp. Heat Index Dew Point Humidity Pressure Visibility Wind Dir Wind Speed Gust Speed Precip Events Conditions
12:53 AM 61.0 °F - 54.0 °F 78% 30.09 in 10.0 mi South 6.9 mph - N/A   Clear
1:53 AM 60.1 °F - 53.1 °F 78% 30.09 in 10.0 mi SSW 5.8 mph - N/A   Clear
2:53 AM 60.1 °F - 54.0 °F 80% 30.09 in 10.0 mi SSW 5.8 mph - N/A   Clear
3:53 AM 57.9 °F - 53.1 °F 84% 30.09 in 10.0 mi Calm Calm - N/A   Clear
4:53 AM 57.0 °F - 53.1 °F 87% 30.09 in 9.0 mi South 3.5 mph - N/A   Clear
5:53 AM 57.0 °F - 53.1 °F 87% 30.10 in 9.0 mi SSW 3.5 mph - N/A   Clear
6:53 AM 59.0 °F - 54.0 °F 83% 30.10 in 8.0 mi South 4.6 mph - N/A   Clear
7:53 AM 64.0 °F - 55.9 °F 75% 30.09 in 10.0 mi South 4.6 mph - N/A   Clear
8:53 AM 70.0 °F - 57.9 °F 65% 30.09 in 10.0 mi SW 9.2 mph - N/A   Clear
9:53 AM 73.0 °F - 60.1 °F 64% 30.08 in 9.0 mi SW 9.2 mph - N/A   Clear
11:53 AM 78.1 °F - 59.0 °F 52% 30.07 in 10.0 mi WSW 6.9 mph - N/A   Clear
12:53 PM 79.0 °F - 55.9 °F 45% 30.05 in 10.0 mi SW 11.5 mph - N/A   Clear
1:53 PM 80.1 °F 80.6 °F 57.9 °F 47% 30.04 in 10.0 mi SW 11.5 mph - N/A   Partly Cloudy
2:53 PM 80.1 °F 80.4 °F 57.0 °F 45% 30.03 in 10.0 mi SW 11.5 mph 17.3 mph N/A   Scattered Clouds
3:53 PM 80.1 °F 80.6 °F 57.9 °F 47% 30.02 in 9.0 mi West 12.7 mph 18.4 mph N/A   Mostly Cloudy
4:53 PM 79.0 °F - 57.0 °F 47% 30.02 in 10.0 mi SW 9.2 mph - N/A   Clear
5:53 PM 79.0 °F - 59.0 °F 50% 30.01 in 10.0 mi SSW 9.2 mph - N/A   Clear
6:53 PM 77.0 °F - 60.1 °F 56% 30.01 in 10.0 mi WSW 3.5 mph - N/A   Clear
7:53 PM 73.9 °F - 59.0 °F 59% 30.01 in 10.0 mi SSW 5.8 mph - N/A   Clear
8:53 PM 71.1 °F - 59.0 °F 66% 30.02 in 10.0 mi SW 4.6 mph - N/A   Clear
9:53 PM 69.1 °F - 57.9 °F 68% 30.02 in 10.0 mi SW 4.6 mph - N/A   Clear
10:53 PM 66.9 °F - 57.9 °F 73% 30.02 in 10.0 mi SSW 4.6 mph - N/A   Clear
11:53 PM 64.9 °F - 57.0 °F 75% 30.02 in 10.0 mi SSW 3.5 mph - N/A   Clear